Tracking 30970 objects as of 3-Jul-2025
HD Live streaming from Space Station
objects crossing your sky now

STARLINK-31647

Track STARLINK-31647 now!
10-day predictions
STARLINK-31647 is classified as:


NORAD ID: 59389
Int'l Code: 2024-062R
Perigee: 467.6 km
Apogee: 471.8 km
Inclination: 53.2 °
Period: 93.8 minutes
Semi major axis: 6840 km
RCS: Unknown
Launch date: April 2, 2024
Source: United States (US)
Launch site: AIR FORCE WESTERN TEST RANGE (AFWTR)
Your satellite tracking list
Your tracking list is empty




NASA's NSSDC Master Catalog

Two Line Element Set (TLE):
1 59389U 24062R   25183.72042662  .00025499  00000-0  76222-3 0  9997
2 59389  53.1614 337.9306 0003051 139.3547 220.7684 15.34440102 71380
Source of the keplerian elements: AFSPC